Location: Ab? ar R?sh Ba?r?
(24.1861°N, 32.8847°E)
Time: 10:05:11
(UTC+00:00)

Feng Yun 1-1 Rocket - Visible Passes

Search period start: 26 May 2022 00:00
Search period end: 05 June 2022 00:00
Orbit: 829 x 934 km, 99.2° (Epoch: 25 May)

Date Brightness Start Highest point End Pass type
(mag) Time Alt. Az. Time Alt. Az. Time Alt. Az.
26 May 4.4 16:44:22 10° SSE 16:49:47 56° ENE 16:55:06 10° N visible
26 May 6.9 18:29:07 10° WSW 18:31:10 12° W 18:33:12 10° WNW visible
27 May 6.8 18:25:53 10° WSW 18:28:21 13° W 18:30:48 10° WNW visible
28 May 6.8 18:22:43 10° SW 18:25:31 14° W 18:28:19 10° WNW visible
29 May 6.7 18:19:37 10° SW 18:22:42 15° W 18:25:47 10° WNW visible
30 May 6.7 18:16:32 10° SW 18:19:54 16° W 18:23:13 10° WNW visible
31 May 6.6 18:13:30 10° SW 18:17:04 18° W 18:20:37 10° WNW visible
01 Jun 6.5 18:10:29 10° SW 18:14:15 19° W 18:18:00 10° NW visible
02 Jun 6.5 18:07:30 10° SW 18:11:26 20° W 18:15:22 10° NW visible
03 Jun 6.4 18:04:30 10° SSW 18:08:37 22° W 18:12:42 10° NW visible
04 Jun 6.3 18:01:33 10° SSW 18:05:48 23° W 18:10:02 10° NW visible
